Regional Weather Roundup
Issued by NWS San Angelo, TX

Current Version | Previous Version | Text Only | Print | Product List | Glossary On
Versions: 1 2 3 4 5 6 7 8 9 10 11 12 13 14 15 16 17 18 19 20 21 22 23 24 25 26 27 28 29 30 31 32 33 34 35 36 37 38 39 40 41 42 43 44 45 46 47 48 49 50
000
ASUS44 KSJT 210310
RWRSJT
WEST CENTRAL TEXAS REGIONAL WEATHER ROUNDUP
NATIONAL WEATHER SERVICE SAN ANGELO TX
1000 PM CDT MON OCT 20 2014

NOTE: "FAIR" INDICATES FEW OR NO CLOUDS BELOW 12,000 FEET WITH NO
SIGNIFICANT WEATHER AND/OR OBSTRUCTIONS TO VISIBILITY.

TXZ049-054-064>066-071>073-076>078-098-099-113-114-127-128-139-140-
154-155-168>170-210400
...LOCATIONS ACROSS WEST CENTRAL TEXAS...

CITY           SKY/WX    TMP DP  RH WIND       PRES   REMARKS
SAN ANGELO     CLEAR     66  53  63 E6        30.06R
ABILENE        PTCLDY    66  53  63 SE6       30.07R
DYESS AFB      PTCLDY    65  53  65 S5        30.06R
JUNCTION       CLEAR     68  55  63 NE5       30.06R
SWEETWATER     PTCLDY    66  55  67 SE6       30.11R
BROWNWOOD      MOCLDY    66  57  72 SE5       30.07R
COLEMAN        CLEAR     67  56  67 CALM      30.07R
SONORA         CLEAR     70  52  52 S5        30.11R
OZONA          FAIR      64  59  82 CALM      30.09R
BRADY          CLEAR     66  54  63 E5        30.07R
$$

TEXAS PANHANDLE/OKLAHOMA PANHANDLE

CITY           SKY/WX    TMP DP  RH WIND       PRES   REMARKS
AMARILLO       PTCLDY    62  52  69 SW3       30.12R
BORGER         CLEAR     69  50  50 SE8       30.10R
CANADIAN       CLEAR     65  58  79 CALM      30.07R
DALHART        CLEAR     58  47  66 E8        30.14R
DUMAS          CLEAR     60  47  62 E6        30.12R
GUYMON         NOT AVBL
HEREFORD       MOCLDY    62  55  80 W5        30.13S
PAMPA          PTCLDY    60  51  72 SE3       30.12R
PERRYTON       CLEAR     60  54  81 E7        30.10R
$$

SOUTHERN PANHANDLE/SOUTH PLAINS/ROLLING PLAINS

CITY           SKY/WX    TMP DP  RH WIND       PRES   REMARKS
LUBBOCK        PTCLDY    62  53  72 SE6       30.11R
SNYDER         CLEAR     66  53  62 SE6       30.09R
CHILDRESS      PTCLDY    67  54  63 S7        30.07R
SEMINOLE       CLOUDY    64  53  68 CALM      30.11R
$$

PERMIAN BASIN

CITY           SKY/WX    TMP DP  RH WIND       PRES   REMARKS
MIDLAND        CLOUDY    70  50  49 SE8       30.08R
ODESSA         CLOUDY    69  52  54 SE7       30.09R
WINK           MOCLDY    66  64  93 CALM      30.06R
$$

FAR WEST/SOUTHWEST MOUNTAINS/TRANS PECOS

CITY           SKY/WX    TMP DP  RH WIND       PRES   REMARKS
ALPINE         CLOUDY    58  57  94 NE5       30.19S
DRYDEN           N/A     67  61  81 E6        30.04R
EL PASO        CLOUDY    64  51  62 S12       30.07R
FORT STOCKTON  MOCLDY    65  60  84 S9        30.08R
GUADALUPE PASS CLOUDY    56  52  86 NE29      30.14S
MARFA          MOCLDY    57  55  94 NE9       30.14S
PECOS          CLOUDY    64  62  94 CALM      30.07R FOG
$$

DALLAS/FORT WORTH METROPLEX

CITY           SKY/WX    TMP DP  RH WIND       PRES   REMARKS
DFW AIRPORT    PTCLDY    69  59  70 SE6       30.04R
FTW MEACHAM    CLEAR     71  60  68 SE7       30.04R
DAL-EXECUTIVE  CLEAR     67  60  78 SE5       30.05R
GRAND PRAIRIE  CLEAR     70  61  73 SE3       30.06R
ADDISON        CLEAR     72  59  64 SE8       30.05R
MESQUITE       CLEAR     65  59  81 SE3       30.05
LANCASTER      CLEAR     64  57  78 CALM      30.06R
$$

NORTH CENTRAL TEXAS

CITY           SKY/WX    TMP DP  RH WIND       PRES   REMARKS
SHRMAN/DENISON CLEAR     71  63  76 SE8       30.05S
GAINESVILLE    CLEAR     66  59  78 MISG      30.07R
BRIDGEPORT     CLEAR     69  59  72 SE5       30.07R
DENTON         CLEAR     67  60  78 S5        30.04R
WAXAHACHIE     CLEAR     67  60  76 CALM      30.06R
GRANBURY       CLEAR     70  58  66 SE5       30.06R
$$

WESTERN NORTH TEXAS

CITY           SKY/WX    TMP DP  RH WIND       PRES   REMARKS
WICHITA FALLS  CLEAR     67  59  75 S9        30.03R
VERNON         CLEAR     70  55  60 S7        30.05R
BRECKENRIDGE   CLEAR     69  56  61 SE7       30.05R
COMANCHE       PTCLDY    66  59  76 SE5       30.07R
$$

CENTRAL AND SOUTH CENTRAL TEXAS

CITY           SKY/WX    TMP DP  RH WIND       PRES   REMARKS
AUSTIN/BERGSTM MOCLDY    64  60  87 CALM      30.03R
WACO           PTCLDY    67  59  75 SE5       30.05R
HILLSBORO      CLEAR     70  58  66 E7        30.05R
TEMPLE         PTCLDY    66  55  68 E5        30.05R
KILLEEN-GRAY   PTCLDY    72  59  64 E7        30.05R
FORT HOOD      CLEAR     70  59  68 CALM      30.05R
GEORGETOWN     CLEAR     64  57  77 CALM      30.05R
LAGO VISTA     FAIR      69  58  67 E6        30.06S
SAN MARCOS     PTCLDY    66  54  63 NE7       30.04R
NEW BRAUNFELS  PTCLDY    71  58  63 E6        30.02R
RANDOLPH AFB   PTCLDY    70  58  66 E5        30.03R
SAN ANTONIO    MOCLDY    73  59  61 NE3       30.03R
STINSON        PTCLDY    74  58  57 E8        30.00R
PLEASANTON     NOT AVBL
LA GRANGE      MOCLDY    71  63  77 CALM      30.02R
GIDDINGS       MOCLDY    68  60  75 E7        30.07S
$$

EAST TEXAS

CITY           SKY/WX    TMP DP  RH WIND       PRES   REMARKS
PARIS          CLEAR     64  54  68 S6        30.06R
CLARKSVILLE    NOT AVBL
TYLER          CLEAR     66  57  72 CALM      30.06R
LONGVIEW       CLEAR     61  56  83 CALM      30.06R
PALESTINE      CLEAR     61  60  95 CALM      30.06R FOG
NACOGDOCHES    CLEAR     57  54  88 CALM      30.06R
$$

TEXAS HILL COUNTRY AND EDWARDS PLATEAU

CITY           SKY/WX    TMP DP  RH WIND       PRES   REMARKS
LLANO          PTCLDY    63  57  82 CALM      30.09R
HORSESHOE BAY  FAIR      67  57  70 CALM      30.06R
KERRVILLE      PTCLDY    68  59  73 E5        30.06R
FREDERICKSBRG  PTCLDY    66  58  75 CALM      30.07R
ROCKSPRINGS    CLEAR     66  55  68 CALM      30.09R
HONDO          MOCLDY    69  56  62 E5        30.04R
UVALDE         PTCLDY    73  58  58 E6        30.02R
DEL RIO        CLOUDY    72  64  76 CALM      29.99R
$$

SOUTHEAST TEXAS

CITY           SKY/WX    TMP DP  RH WIND       PRES   REMARKS
COLLEGE STN    MOCLDY    69  60  73 E5        30.04R
CALDWELL       MOCLDY    68  61  77 CALM      30.07R
CROCKETT       CLEAR     63  61  94 NE3       30.08R
BRENHAM        MOCLDY    69  62  78 CALM      30.04R
HUNTSVILLE     CLEAR     65  59  81 CALM      30.05R
CONROE         PTCLDY    60  59  96 CALM      30.05R
HOUSTON BUSH   MOCLDY    66  58  75 NE5       30.03R
HOUSTON HOBBY  MOCLDY    71  58  63 NE6       30.02R
PERLAND        MOCLDY    70  62  76 NE7       30.03R
WHARTON        PTCLDY    65  59  81 CALM      30.03R
$$

THE UPPER TEXAS COAST

CITY           SKY/WX    TMP DP  RH WIND       PRES   REMARKS
ORANGE         CLEAR     62  62 100 CALM      30.04R
PORT ARTHUR    CLEAR     64  57  78 NE5       30.02R
GALVESTON      PTCLDY    73  64  73 NE7       30.02R
ANGLETON       PTCLDY    65  65 100 CALM      30.01R
BAY CITY         N/A     69  68  95 CALM      30.01S
$$

TEXAS COASTAL BEND, RIO GRANDE PLAINS DEEP SOUTH TEXAS

CITY           SKY/WX    TMP DP  RH WIND       PRES   REMARKS
VICTORIA       PTCLDY    70  63  78 E7        30.01R
BEEVILLE       FAIR      73  67  84 E6        30.00R
ROCKPORT       CLEAR     76  70  82 E12       29.98R
PORT ARANSAS   PTCLDY    76  70  80 E15       29.98R
PORT LAVACA    CLEAR     74  66  78 E8        30.00S
CORPUS CHRISTI PTCLDY    75  71  87 E10       29.98R
KINGSVILLE NAS PTCLDY    71  71 100 NE6       29.97R
COTULLA        MOCLDY    76  62  62 SE10      30.00R
LAREDO         MOCLDY    74  66  75 E8        30.01R
BROWNSVILLE    PTCLDY    76  70  82 N3        29.94R
PORT ISABEL    CLEAR     79  71  76 NE7       29.94R
HEBBRONVILLE   CLEAR     71  67  88 E6        30.00S
MCALLEN        PTCLDY    75  70  84 NE7       29.96R
WESLACO        CLEAR     72  67  84 N3        29.96R
FALFURRIAS     CLEAR     72  69  90 NE6       29.97R
EDINBURG       CLEAR     73  69  86 NE3       29.97R
$$



USA.gov is the U.S. government's official web portal to all federal, state and local government web resources and services.